Weather History for West Plains, MO

Change the Weather History Date:

Saturday, August 3, 2013

  Actual Average Record
Temperature  
Mean Temperature 77 °F 78 °F  
Max Temperature 86 °F 91 °F 108 °F (2011)
Min Temperature 68 °F 66 °F 51 °F (1950)
Degree Days  
Heating Degree Days 0 0  
Month to date heating degree days 0 0  
Since 1 June heating degree days 9 5  
Since 1 July heating degree days 0 0  
Cooling Degree Days 12 13  
Month to date cooling degree days 32 39  
Year to date cooling degree days 566 832  
Since 1 June cooling degree days 454 710  
Growing Degree Days 27 (Base 50)    
Moisture  
Dew Point 70 °F    
Average Humidity 75    
Maximum Humidity 93    
Minimum Humidity 57    
Precipitation  
Precipitation 0.67 in 0.11 in 0.87 in (1961)
Month to date precipitation 0.67 0.35  
Year to date precipitation 32.28 27.19  
Sea Level Pressure  
Sea Level Pressure 30.02 in    
Wind  
Wind Speed 4 mph (WNW)    
Max Wind Speed 16 mph    
Max Gust Speed 24 mph    
Visibility 8 miles    
Events Rain , Thunderstorm    
T = Trace of Precipitation, MM = Missing Value Source: NWS Daily Summary

Daily Weather History Graph

Daily Weather History Graph

Search for Another Location

Airport:

Trip Planner

Search our weather history database for the weather conditions in past years. The results will help you decide how hot, cold, wet, or windy it might be!

Date:

Astronomy

Aug. 03, 2013 Rise Set
Actual Time 6:14 AM CDT 8:12 PM CDT
Civil Twilight 5:46 AM CDT 8:40 PM CDT
Nautical Twilight 5:11 AM CDT 9:14 PM CDT
Astronomical Twilight 4:34 AM CDT 9:51 PM CDT
Moon 3:25 AM CDT (8/3) 5:54 PM CDT (8/3)
Length of Visible Light 14h 54m
Length of Day
13h 57m
Waning Crescent, 9% of the Moon is Illuminated
Aug 3
Waning Crescent
Aug 6
New
Aug 14
First Quarter
Aug 20
Full
Aug 28
Last Quarter

Hourly Weather History & Observations

Time (CDT) Temp. Heat Index Dew Point Humidity Pressure Visibility Wind Dir Wind Speed Gust Speed Precip Events Conditions
12:15 AM 73.4 °F - 69.8 °F 88% 29.99 in 10.0 mi Calm Calm - N/A   Partly Cloudy
12:53 AM 75.0 °F - 71.1 °F 87% 29.94 in 10.0 mi South 4.6 mph - N/A Thunderstorm Partly Cloudy
1:10 AM 75.2 °F - 71.6 °F 89% 30.01 in 10.0 mi NE 3.5 mph - N/A   Mostly Cloudy
1:19 AM 75.2 °F - 71.6 °F 89% 29.99 in 10.0 mi Calm Calm - N/A Thunderstorm Mostly Cloudy
1:29 AM 73.4 °F - 71.6 °F 94% 29.99 in 10.0 mi Calm Calm - N/A   Mostly Cloudy
1:36 AM 73.4 °F - 71.6 °F 94% 29.99 in 10.0 mi Calm Calm - N/A Thunderstorm Thunderstorm
1:53 AM 73.9 °F - 71.1 °F 91% 29.93 in 9.0 mi South 6.9 mph - 0.00 in Rain , Thunderstorm Light Thunderstorms and Rain
2:02 AM 73.4 °F - 71.6 °F 94% 29.95 in 10.0 mi SSW 11.5 mph - 0.00 in   Mostly Cloudy
2:33 AM 75.2 °F - 73.4 °F 94% 29.93 in 9.0 mi SW 12.7 mph 21.9 mph 0.00 in Thunderstorm Partly Cloudy
2:48 AM 77.0 °F - 73.4 °F 89% 29.92 in 8.0 mi SSW 6.9 mph 17.3 mph 0.00 in Thunderstorm Partly Cloudy
2:53 AM 77.0 °F - 73.0 °F 88% 29.90 in 8.0 mi SW 6.9 mph 16.1 mph 0.00 in Thunderstorm Clear
3:32 AM 75.2 °F - 73.4 °F 94% 29.96 in 6.0 mi North 5.8 mph - 0.00 in Rain , Thunderstorm Light Thunderstorms and Rain
3:53 AM 75.9 °F - 73.9 °F 94% 29.91 in 5.0 mi WSW 6.9 mph - 0.02 in Rain , Thunderstorm Light Thunderstorms and Rain
4:12 AM 75.2 °F - 73.4 °F 94% 29.99 in 6.0 mi North 8.1 mph 16.1 mph 0.00 in Rain , Thunderstorm Light Thunderstorms and Rain
4:49 AM 71.6 °F - 69.8 °F 94% 30.00 in 10.0 mi NNW 8.1 mph - 0.02 in Rain , Thunderstorm Light Thunderstorms and Rain
4:53 AM 71.1 °F - 69.1 °F 93% 29.95 in 10.0 mi WNW 5.8 mph - 0.02 in Rain , Thunderstorm Light Thunderstorms and Rain
5:40 AM 69.8 °F - 66.2 °F 88% 30.02 in 2.5 mi WSW 5.8 mph - 0.18 in Rain , Thunderstorm Heavy Thunderstorms and Rain
5:50 AM 69.8 °F - 66.2 °F 88% 30.02 in 6.0 mi West 8.1 mph - 0.19 in Rain , Thunderstorm Light Thunderstorms and Rain
5:53 AM 69.1 °F - 66.9 °F 93% 29.98 in 7.0 mi Variable 4.6 mph - 0.19 in Rain , Thunderstorm Light Rain
6:46 AM 69.8 °F - 66.2 °F 88% 30.05 in 5.0 mi NW 6.9 mph - 0.06 in Rain Rain
6:53 AM 69.1 °F - 66.9 °F 93% 30.02 in 6.0 mi WNW 9.2 mph - 0.07 in Rain Rain
7:21 AM 69.8 °F - 66.2 °F 88% 30.09 in 4.0 mi NW 5.8 mph - 0.06 in Rain , Thunderstorm Heavy Thunderstorms and Rain
7:36 AM 68.0 °F - 66.2 °F 94% 30.10 in 4.0 mi NNW 6.9 mph - 0.13 in Rain Heavy Rain
7:53 AM 68.0 °F - 66.9 °F 96% 30.06 in 3.0 mi WNW 4.6 mph - 0.19 in Rain Rain
8:53 AM 68.0 °F - 66.9 °F 96% 30.08 in 4.0 mi Calm Calm - 0.12 in Rain Rain
9:53 AM 69.1 °F - 66.9 °F 93% 30.04 in 9.0 mi WSW 6.9 mph - 0.05 in Rain Light Rain
10:53 AM 72.0 °F - 69.1 °F 91% 30.04 in 10.0 mi WSW 4.6 mph - 0.01 in   Clear
11:53 AM 78.1 °F - 69.1 °F 74% 30.04 in 10.0 mi Variable 6.9 mph - N/A   Partly Cloudy
12:53 PM 78.1 °F - 69.1 °F 74% 30.03 in 10.0 mi Variable 3.5 mph - N/A   Clear
1:53 PM 82.0 °F 85.5 °F 69.1 °F 65% 30.03 in 10.0 mi West 6.9 mph - N/A   Clear
2:53 PM 82.9 °F 86.5 °F 69.1 °F 63% 30.04 in 10.0 mi Variable 5.8 mph - N/A   Partly Cloudy
3:53 PM 84.9 °F 89.4 °F 70.0 °F 61% 30.03 in 10.0 mi NNE 4.6 mph - N/A   Scattered Clouds
4:53 PM 86.0 °F 90.1 °F 69.1 °F 57% 30.02 in 10.0 mi Calm Calm - N/A   Partly Cloudy
5:53 PM 84.9 °F 90.7 °F 72.0 °F 65% 30.03 in 10.0 mi NE 4.6 mph - N/A   Mostly Cloudy
6:53 PM 81.0 °F 85.2 °F 72.0 °F 74% 30.04 in 10.0 mi Calm Calm - N/A   Scattered Clouds
7:53 PM 79.0 °F - 73.0 °F 82% 30.04 in 10.0 mi NE 3.5 mph - N/A   Mostly Cloudy
8:53 PM 78.1 °F - 72.0 °F 81% 30.07 in 10.0 mi NNE 3.5 mph - N/A   Overcast
9:53 PM 77.0 °F - 73.0 °F 88% 30.09 in 10.0 mi Calm Calm - N/A   Mostly Cloudy
10:53 PM 75.0 °F - 72.0 °F 90% 30.09 in 10.0 mi Calm Calm - N/A   Partly Cloudy
11:07 PM 75.2 °F - 73.4 °F 94% 30.13 in 10.0 mi Calm Calm - N/A   Mostly Cloudy
11:53 PM 75.9 °F - 72.0 °F 87% 30.10 in 10.0 mi WSW 3.5 mph - N/A   Overcast